CAPE
0 0 0 0 0 0 0 0 0 0 0 0 0 0 0 0 1 0 0 0 0 0
0 0 0 0 0 0 0 0 0 0 0 0 0 0 0 0 0 0 0 5 0 0
0 0 0 0 0 0 0 0 0 0 0 0 0 0 0 0 1 2 2 2 2 20
0 0 0 0 0 0 0 0 0 0 0 0 0 0 0 0 0 0 5 4 5 14
0 0 0 0 0 0 0 0 0 0 0 0 0 0 0 0 1 2 6 17 14 17
0 0 0 0 0 0 0 0 0 0 0 0 0 0 0 1 0 0 2 2 10 2
0 0 0 0 0 0 0 0 0 0 0 0 0 0 0 0 0 0 0 0 0 0
0 0 0 0 0 0 0 0 0 0 0 0 0 0 0 0 0 0 0 0 0 0
0 0 0 0 0 0 0 0 0 0 0 0 0 0 0 0 0 0 0 0 0 0
0 0 0 0 0 1 0 0 0 0 0 0 0 0 0 0 0 0 0 0 0 0
0 0 0 0 1 1 1 2 4 1 0 0 0 0 0 0 0 0 0 0 0 0
0 0 0 2 3 3 5 3 2 3 1 1 1 1 0 1 1 0 0 0 0 0
0 0 1 3 3 5 3 3 1 2 1 0 1 1 1 0 0 1 0 4 1 2
0 0 0 1 3 3 2 1 0 0 1 1 2 2 2 1 1 0 2 4 2 2
CIN
0 0 0 -6 0 -0 0 0 0 0 0 0 0 -8 0 -93 -124 -9 -12 0 0 0
0 0 0 0 0 -0 0 0 0 0 0 0 0 0 0 0 0 0 0 -88 0 0
0 0 0 0 0 0 0 -4 0 0 0 0 0 0 0 0 -45 -68 -75 -83 -71 -89
0 0 0 0 0 0 0 0 0 0 0 0 0 0 0 0 0 -29 -54 -85 -103 -128
-0 -3 0 0 0 0 0 0 0 0 0 0 0 0 0 0 -46 -77 -58 -79 -117 -135
-0 0 0 0 0 0 0 0 0 0 0 0 0 0 0 -50 0 -69 -87 -93 -111 -103
-0 0 0 0 0 0 0 0 0 0 0 0 0 0 0 0 0 0 -33 0 0 -25
0 0 0 0 0 0 0 0 0 -22 0 0 0 0 0 0 0 0 0 0 0 0
0 0 0 0 0 0 0 0 0 0 0 0 0 0 0 0 0 0 0 0 0 0
0 0 0 0 0 -0 -0 -0 -0 -1 -0 -0 0 0 0 0 0 0 0 0 -0 -1
0 0 0 0 0 0 0 0 -0 -0 -0 -0 0 0 0 0 0 0 0 0 0 -1
0 0 0 0 0 0 0 0 0 0 0 0 0 0 0 0 0 0 0 0 0 0
0 0 0 0 0 0 0 0 0 0 0 0 0 0 0 0 0 0 0 0 0 0
0 0 0 0 0 0 0 0 0 0 0 0 0 0 0 0 0 0 0 0 0 -0
Wind_Speed
9 8 7 7 5 5 6 7 10 9 9 11 11 9 9 6 6 6 4 8 7 4
8 8 8 8 5 5 5 6 8 8 8 10 11 9 9 7 11 9 10 10 10 11
8 6 6 7 8 8 6 7 7 8 8 8 10 12 12 10 11 13 12 12 14 12
6 7 8 7 7 7 5 6 6 8 9 11 11 11 11 12 12 14 14 14 14 14
5 7 8 8 8 7 8 6 8 7 9 11 11 13 14 14 13 14 15 14 13 14
6 7 8 8 8 9 9 9 10 11 11 11 12 12 12 14 15 15 15 15 15 15
7 8 7 7 9 11 11 12 13 13 13 14 13 13 14 15 15 16 15 14 15 15
5 6 6 6 8 9 10 11 13 13 13 14 14 12 15 15 15 15 15 15 15 15
9 8 5 8 9 9 11 12 12 13 14 15 12 15 18 17 15 17 17 17 18 17
10 9 9 9 8 6 10 12 14 15 15 16 16 14 17 21 17 16 17 18 18 17
10 10 10 10 10 10 9 9 9 13 14 15 9 16 9 16 18 18 20 20 20 19
11 11 11 11 11 10 9 10 12 14 15 12 13 19 15 10 10 17 20 19 6 6
11 11 11 10 10 9 9 10 9 12 13 17 12 20 18 9 1 6 5 8 8 15
12 12 12 10 10 9 8 8 9 10 10 12 15 17 24 16 9 8 10 9 10 11
Wind_Direction
168 173 178 186 192 185 184 184 178 181 181 179 175 169 173 180 206 189 190 228 227 268
185 179 167 166 171 198 190 195 182 169 172 181 186 179 179 194 204 200 218 229 229 225
185 179 163 161 178 181 178 185 173 171 175 175 190 198 195 202 210 211 216 220 223 217
186 184 186 186 186 182 173 177 175 193 196 194 194 202 208 214 206 209 215 217 215 221
197 192 195 199 193 192 192 188 200 189 205 215 213 208 207 213 212 213 219 217 215 224
195 200 205 201 196 194 203 209 212 212 212 212 216 217 219 224 225 224 223 221 219 223
201 209 210 210 211 209 202 210 218 220 224 226 225 222 222 222 226 230 231 231 233 232
220 203 202 207 216 221 221 223 223 220 221 225 228 224 226 228 231 234 238 237 235 231
24 14 249 231 223 222 226 224 228 228 229 227 227 220 214 225 232 234 234 238 239 241
22 21 13 357 0 300 250 231 232 232 234 238 240 227 215 212 229 236 240 242 244 243
18 20 13 10 7 352 340 333 285 245 237 238 237 11 316 239 225 232 239 243 243 242
16 21 18 15 7 357 348 13 29 37 32 28 35 3 356 338 251 241 241 242 327 338
22 25 24 23 21 27 33 44 48 49 41 33 28 15 11 357 327 317 352 40 46 24
30 33 26 31 30 42 53 61 55 57 47 43 33 27 30 46 63 71 69 56 46 27